Skip Page Navigation
NASA JPL Caltech
NASA Logo - Jet Propulsion Laboratory + View the NASA Portal
+ Near-Earth Object (NEO) Program
Search JPL
JPL Home Earth Solar System Stars & Galaxies Technology
JPL Solar System Dynamics
BODIES ORBITS EPHEMERIDES TOOLS PHYSICAL DATA DISCOVERY FAQ SITE MAP
JPL Small-Body Database Browser
Search: [ help ]  
257417 (2009 WT)
Classification: Main-belt Asteroid          SPK-ID: 2257417
Ephemeris | Orbit Diagram | Orbital Elements | Physical Parameters | Discovery Circumstances ]

[ hide orbit diagram ]
Orbit Diagram
Note: Make sure you have Java enabled on your browser to see the applet. This applet is provided as a 3D orbit visualization tool. The applet was implemented using 2-body methods, and hence should not be used for determining accurate long-term trajectories (over several years or decades) or planetary encounter circumstances. For accurate long-term ephemerides, please instead use our Horizons system.
Orbit Viewer

Additional Notes: the orbits shown in the applet are color coded. The planets are white lines, and the asteroid/comet is a blue line. The bright white line indicates the portion of the orbit that is above the ecliptic plane, and the darker portion is below the ecliptic plane. Likewise for the asteroid/comet orbit, the light blue indicates the portion above the ecliptic plane, and the dark blue the portion below the ecliptic plane.

Orbit Viewer applet originally written and kindly provided by Osamu Ajiki (AstroArts), and further modified by Ron Baalke (JPL).


Orbital Elements at Epoch 2456400.5 (2013-Apr-18.0) TDB
Reference: MPO234242 (heliocentric ecliptic J2000)
 Element Value Uncertainty (1-sigma)   Units 
e 0.0727208 n/a  
a 2.9957780 n/a AU
q 2.7779226 n/a AU
i 8.62043 n/a deg
node 79.71414 n/a deg
peri 149.97677 n/a deg
M 43.91158 n/a deg
tp 2456169.4854047
(2012-Aug-29.98540470)
n/a JED
period 1893.9253449
5.19
n/a
n/a
d
yr
n 0.19008141 n/a deg/d
Q 3.2136334 n/a AU
  Orbit Determination Parameters
   # obs. used (total)      129  
   first obs. used      1999-??-??  
   last obs. used      2012-06-23  
   # oppositions      7  
   planetary ephem.      DE403  
   condition code      1  
   fit RMS      0.61  
   data source      MPC:mpu  
   producer      MPCLINUX  

Additional Information
 T_jup = 3.233 

Ephemeris | Orbit Diagram | Orbital Elements | Physical Parameters | Discovery Circumstances ]

Physical Parameter Table
Parameter Symbol Value Units Sigma Reference Notes
absolute magnitude H 15.7 mag n/a MPO234242  

257417 (2009 WT)          Discovered 2009-Nov-16 by Molnar, L. A. at Calvin-Rehoboth (G98)
Reference: 20101128/Numbers.arcLast Updated: 2010-12-06

Alternate Designations
 2009 WT = 1999 WA26 = 2007 HC56 
Ephemeris | Orbit Diagram | Orbital Elements | Physical Parameters | Discovery Circumstances ]
ABOUT SSD CREDITS/AWARDS PRIVACY/COPYRIGHT GLOSSARY LINKS
FirstGov 2013-May-22 02:06 UT
(server date/time)  
NASA Home Page
Site Manager:   Donald K. Yeomans
Webmaster  Alan B. Chamberlin